Regional Weather Roundup
Issued by NWS Charleston, WV

Home | Current Version | Previous Version | Graphics & Text | Print | Product List | Glossary On
Versions: 1 2 3 4 5 6 7 8 9 10 11 12 13 14 15 16 17 18 19 20 21 22 23 24 25 26 27 28 29 30 31 32 33 34 35 36 37 38 39 40 41 42 43 44 45 46 47 48 49 50
176
ASUS41 KRLX 100110
RWRRLX
West Virginia Regional Weather Roundup
National Weather Service Charleston WV
800 PM EST TUE FEB 09 2016

Note: "fair" indicates few or no clouds below 12,000 feet with no
significant weather and/or obstructions to visibility.

WVZ003-100200-
Northern Panhandle of West Virginia

CITY           SKY/WX    TMP DP  RH WIND       PRES   REMARKS
WHEELING       LGT SNOW  24  19  81 W9        29.71R
$$

WVZ009-100200-
Northwest West Virginia

CITY           SKY/WX    TMP DP  RH WIND       PRES   REMARKS
PARKERSBURG    FLURRIES  24  19  81 W9G17     29.82S
$$

WVZ006-100200-
Western West Virginia

CITY           SKY/WX    TMP DP  RH WIND       PRES   REMARKS
HUNTINGTON     LGT SNOW  25  17  72 W12G18    29.87R
$$

WVZ015-100200-
West Central West Virginia

CITY           SKY/WX    TMP DP  RH WIND       PRES   REMARKS
CHARLESTON     LGT SNOW  23  20  88 SW7       29.84R FOG
$$

WVZ022-031-100200-
North Central West Virginia

CITY           SKY/WX    TMP DP  RH WIND       PRES   REMARKS
CLARKSBURG     LGT SNOW  22  19  89 SW9       29.75S
MORGANTOWN     LGT SNOW  22  17  81 S7        29.74R
$$

WVZ025-035-042-045-100200-
Southern West Virginia

CITY           SKY/WX    TMP DP  RH WIND       PRES   REMARKS
BECKLEY        FLURRIES  17  12  80 W7        29.74R WCI   8
LOGAN          FLURRIES  21  16  79 VRB6G12   29.82R
BLUEFIELD      LGT SNOW  15  11  83 W12       29.73R FOG     WCI   2
LEWISBURG      LGT SNOW  22  15  75 W8        29.73R
$$

WVZ047-100200-
Northern Mountains of West Virginia

CITY           SKY/WX    TMP DP  RH WIND       PRES   REMARKS
ELKINS         LGT SNOW  20  13  74 SW8       29.73R
$$

WVZ052-100200-
Eastern Panhandle of West Virginia

CITY           SKY/WX    TMP DP  RH WIND       PRES   REMARKS
MARTINSBURG    CLOUDY    30  19  63 W10       29.66R
PETERSBURG     CLOUDY    29  13  52 CALM      29.72R
$$




USA.gov is the U.S. government's official web portal to all federal, state and local government web resources and services.